Regional Weather Roundup
Issued by NWS San Angelo, TX

Home | Current Version | Previous Version | Text Only | Print | Product List | Glossary On
Versions: 1 2 3 4 5 6 7 8 9 10 11 12 13 14 15 16 17 18 19 20 21 22 23 24 25 26 27 28 29 30 31 32 33 34 35 36 37 38 39 40 41 42 43 44 45 46 47 48 49 50
000
ASUS44 KSJT 241810
RWRSJT
WEST CENTRAL TEXAS REGIONAL WEATHER ROUNDUP
NATIONAL WEATHER SERVICE SAN ANGELO TX
1200 PM CST SAT FEB 24 2018

NOTE: "FAIR" INDICATES FEW OR NO CLOUDS BELOW 12,000 FEET WITH NO
SIGNIFICANT WEATHER AND/OR OBSTRUCTIONS TO VISIBILITY.

TXZ049-054-064>066-071>073-076>078-098-099-113-114-127-128-139-140-
154-155-168>170-241900
...LOCATIONS ACROSS WEST CENTRAL TEXAS...

CITY           SKY/WX    TMP DP  RH WIND       PRES   REMARKS
SAN ANGELO     SUNNY     73  44  35 W15G21    29.91F
ABILENE        MOSUNNY   55  52  89 N14       29.93S
DYESS AFB      MOSUNNY   59  51  75 NW20      29.93S
JUNCTION       NOT AVBL
SWEETWATER     SUNNY     58  39  49 NW12G18   29.98S
BROWNWOOD      SUNNY     68  63  83 W3        29.89F
COLEMAN        CLEAR     70  55  60 W14G20    29.90S
SONORA         SUNNY     70  55  60 CALM      29.97S
OZONA          FAIR      70  43  37 NW13G22   29.97F
BRADY          NOT AVBL
$$

TEXAS PANHANDLE/OKLAHOMA PANHANDLE

CITY           SKY/WX    TMP DP  RH WIND       PRES   REMARKS
AMARILLO       SUNNY     54  10  17 W25G40    29.85R
BORGER         SUNNY     51  21  30 W17G33    29.84F
CANADIAN       CLOUDY    42  40  92 N9        29.88R WCI  36
DALHART        SUNNY     50   3  14 NW22G33   29.84F
DUMAS          CLEAR     47  17  29 W24G31    29.85S WCI  39
GUYMON         NOT AVBL
HEREFORD       CLEAR     53   7  16 W31G38    29.91S
PAMPA          CLEAR     51  31  46 W23G30    29.84R
PERRYTON       CLOUDY    36  35  97 NW15      29.86S WCI  27
$$

SOUTHERN PANHANDLE/SOUTH PLAINS/ROLLING PLAINS

CITY           SKY/WX    TMP DP  RH WIND       PRES   REMARKS
LUBBOCK        SUNNY     57  11  16 NW37G46   29.92S
SNYDER         SUNNY     58  32  37 NW14G20   29.96F
CHILDRESS      SUNNY     53  40  61 W10       29.88F
SEMINOLE       CLEAR     58  19  22 W20G28    29.99F
$$

PERMIAN BASIN

CITY           SKY/WX    TMP DP  RH WIND       PRES   REMARKS
MIDLAND        SUNNY     63  20  19 NW15      29.97F
ODESSA         SUNNY     62  19  19 NW20G28   29.98S
WINK           SUNNY     64  16  15 NW14G23   29.98F
$$

FAR WEST/SOUTHWEST MOUNTAINS/TRANS PECOS

CITY           SKY/WX    TMP DP  RH WIND       PRES   REMARKS
ALPINE         CLEAR     63  13  14 W18       30.07S
DRYDEN           N/A     72  49  44 NE17      29.91S
EL PASO        SUNNY     51   1  13 NW9       30.10S
FORT STOCKTON  PTSUNNY   63  18  17 NW24G35   29.99F
GUADALUPE PASS SUNNY     49  14  24 SW46G60   29.98F WCI  39
MARFA          SUNNY     55  16  21 W23G32    30.07R
PECOS          CLEAR     62  19  19 W26G32    30.02S
$$

DALLAS/FORT WORTH METROPLEX

CITY           SKY/WX    TMP DP  RH WIND       PRES   REMARKS
DFW AIRPORT    PTSUNNY   51  48  89 NW12      29.87R
FTW MEACHAM    CLOUDY    51  48  89 NW13      29.89R
DAL-EXECUTIVE  LGT RAIN  54  52  93 NW20      29.86R
GRAND PRAIRIE  CLOUDY    52  52 100 W12G17    29.89R
ADDISON        RAIN      48  46  93 NW9G18    29.89  VSB 1
MESQUITE       RAIN      64  63  94 W13G20    29.85R FOG
LANCASTER      CLOUDY    67  66  97 SW18G26   29.84R
$$

NORTH CENTRAL TEXAS

CITY           SKY/WX    TMP DP  RH WIND       PRES   REMARKS
SHRMAN/DENISON CLOUDY    46  46  98 W13       29.88R
GAINESVILLE    CLOUDY    47  46  93 N12G18    29.90S
BRIDGEPORT     CLOUDY    46  46 100 W7        29.93R
DENTON         CLOUDY    48  46  93 W12       29.89R
WAXAHACHIE     NOT AVBL
GRANBURY       CLOUDY    52  51  95 W12       29.91S
$$

WESTERN NORTH TEXAS

CITY           SKY/WX    TMP DP  RH WIND       PRES   REMARKS
WICHITA FALLS  CLOUDY    48  43  82 NW6       29.90F
VERNON         CLOUDY    47  41  82 W8        29.92F
BRECKENRIDGE   CLOUDY    50  48  92 NW8       29.94F FOG
COMANCHE       CLOUDY    65  65 100 W10G16    29.90R
$$

CENTRAL AND SOUTH CENTRAL TEXAS

CITY           SKY/WX    TMP DP  RH WIND       PRES   REMARKS
AUSTIN/BERGSTM CLOUDY    73  68  84 S14G25    29.90S
WACO           CLOUDY    72  67  84 SW13      29.86S
HILLSBORO      CLOUDY    67  67 100 S17G24    29.85S
TEMPLE         CLOUDY    73  68  84 S28       29.86F
KILLEEN-GRAY   CLOUDY    71  66  86 S13G21    29.87R
FORT HOOD      NOT AVBL
GEORGETOWN     CLOUDY    73  66  78 S18G28    29.91R
LAGO VISTA     CLOUDY    71  67  86 S12G20    29.91S
SAN MARCOS     CLOUDY    72  67  84 S8        29.92S
NEW BRAUNFELS  CLOUDY    71  67  87 SW8       29.91S FOG
RANDOLPH AFB   CLOUDY    70  68  94 SW6       29.91F
SAN ANTONIO    LGT RAIN  69  67  93 S8        29.92S FOG
STINSON        CLOUDY    73  68  84 S5        29.89F
PLEASANTON     NOT AVBL
LA GRANGE      CLOUDY    78  69  73 S16G23    29.88F
GIDDINGS       CLOUDY    75  65  71 SW17G25   29.90F
$$

EAST TEXAS

CITY           SKY/WX    TMP DP  RH WIND       PRES   REMARKS
PARIS          LGT RAIN  70  64  83 S26G43    29.73F
CLARKSVILLE    NOT AVBL
TYLER          LGT RAIN  71  68  90 S18G32    29.86F
LONGVIEW       LGT RAIN  70  69  97 S16G22    29.88F FOG
PALESTINE      MOCLDY    69  68  94 S10       29.90F
NACOGDOCHES    CLOUDY    73  67  81 S15       29.92R
$$

TEXAS HILL COUNTRY AND EDWARDS PLATEAU

CITY           SKY/WX    TMP DP  RH WIND       PRES   REMARKS
LLANO          MOCLDY    77  66  69 S13       29.91F
HORSESHOE BAY  FAIR      74  66  76 S12G23    29.89R
KERRVILLE      CLOUDY    69  65  89 SW10      29.93F
FREDERICKSBRG  CLOUDY    70  65  83 SW16G22   29.91F
ROCKSPRINGS    MOCLDY    68  61  77 S7        29.98F
HONDO          LGT RAIN  71  69  93 SW8       29.91S FOG
UVALDE         CLOUDY    66  64  95 S5        29.92F FOG
DEL RIO        CLOUDY    65  61  87 SE6       29.89F
$$

SOUTHEAST TEXAS

CITY           SKY/WX    TMP DP  RH WIND       PRES   REMARKS
COLLEGE STN    CLOUDY    74  68  81 S17       29.90F
CALDWELL       CLOUDY    74  67  79 S14       29.90F
CROCKETT       CLOUDY    73  66  78 S12       29.94F
BRENHAM        CLOUDY    77  68  72 S16G26    29.90F
HUNTSVILLE     CLOUDY    75  66  73 S14G24    29.92R
CONROE         CLOUDY    77  68  73 S15G26    29.93S
HOUSTON BUSH   CLOUDY    79  66  64 S20G30    29.94F
HOUSTON HOBBY  PTSUNNY   78  69  73 S21G31    29.94F
PERLAND        PTSUNNY   78  68  71 S17G35    29.96F
WHARTON        MOCLDY    77  65  66 S18G28    29.94F
$$

THE UPPER TEXAS COAST

CITY           SKY/WX    TMP DP  RH WIND       PRES   REMARKS
ORANGE         MOCLDY    78  72  82 S20G26    30.01F
PORT ARTHUR    CLOUDY    78  68  71 S22G29    29.98F
GALVESTON      FAIR      78  70  76 S17G25    29.97F
ANGLETON       PTSUNNY   80  68  66 S22G32    29.95F
BAY CITY       CLOUDY    78  69  73 S24G33    29.95F
$$

TEXAS COASTAL BEND, RIO GRANDE PLAINS DEEP SOUTH TEXAS

CITY           SKY/WX    TMP DP  RH WIND       PRES   REMARKS
VICTORIA       CLOUDY    79  67  66 S25G36    29.91F
BEEVILLE       MOCLDY    77  68  74 S17G24    29.88F
ROCKPORT       CLOUDY    74  68  81 S15G25    29.90F HAZE
PORT ARANSAS   NOT AVBL
PORT LAVACA    CLOUDY    77  67  72 S22G31    29.92F
CORPUS CHRISTI PTSUNNY   79  69  71 S30       29.88F
KINGSVILLE NAS MOSUNNY   86  67  52 S23G31    29.85F
COTULLA        CLOUDY    71  68  90 S6        29.89F
LAREDO         CLOUDY    76  67  73 S9        29.87F
BROWNSVILLE    PTSUNNY   84  70  62 S31G41    29.90F
PORT ISABEL    PTSUNNY   83  68  60 S25G38    29.87F
HEBBRONVILLE   PTCLDY    79  65  62 S16       29.86F HAZE
MCALLEN        SUNNY     88  66  48 S24G36    29.86F
WESLACO        MOSUNNY   86  65  48 S29G37    29.85F
FALFURRIAS     PTCLDY    84  65  52 S21G26    29.84F
EDINBURG       PTCLDY    87  63  44 S26G33    29.85F
$$



USA.gov is the U.S. government's official web portal to all federal, state and local government web resources and services.